Regional Weather Roundup
Issued by NWS

Home | Current Version | Previous Version | Text Only | Print | Product List | Glossary Off
Versions: 1 2 3 4 5 6 7 8 9 10 11 12 13 14 15 16 17 18 19 20 21 22 23 24 25 26 27 28 29 30 31 32 33 34 35 36 37 38 39 40 41 42 43 44 45 46 47 48 49 50

000
ASUS43 KLMK 282010
RWRKY
KENTUCKY REGIONAL WEATHER ROUNDUP
NATIONAL WEATHER SERVICE LOUISVILLE KY
400 PM EDT THU AUG 28 2014

NOTE "FAIR" INDICATES FEW OR NO CLOUDS BELOW 12,000 FEET
WITH NO SIGNIFICANT WEATHER AND/OR OBSTRUCTIONS TO VISIBILITY.

KYZ001>023-026-027-061>063-070>075-282100-
WESTERN AND SOUTH CENTRAL KENTUCKY

CITY           SKY/WX    TMP DP  RH WIND       PRES   REMARKS
PADUCAH        TSTM      84  73  69 SW10      29.95F HX  90
HENDERSON      MOSUNNY   88  73  62 NE8       29.97F HX  96
OWENSBORO      MOSUNNY   89  74  61 NE6       29.99F HX  97
HOPKINSVILLE   MOSUNNY   91  73  55 E14       29.98F THUNDER HX 100
BOWLING GREEN  MOSUNNY   91  73  55 NE6       29.99F HX  99
GLASGOW        MOSUNNY   90  71  54 E3        30.00F HX  96
$$

KYZ024-025-028>034-038-045-046-053-282100-
NORTH CENTRAL KENTUCKY

CITY           SKY/WX    TMP DP  RH WIND       PRES   REMARKS
LOUISVILLE/SDF PTSUNNY   89  70  53 E8        30.01F HX  94
LOUISVILLE/LOU PTSUNNY   90  71  53 NE6       30.02F HX  96
FORT KNOX      MOSUNNY   87  72  59 VRB6      30.01F HX  93
$$

KYZ035>037-039>044-047>052-055>060-089>105-282100-
NORTHEAST KENTUCKY

CITY           SKY/WX    TMP DP  RH WIND       PRES   REMARKS
LEXINGTON      SUNNY     86  69  56 MISG      30.06F HX  90
COVINGTON      MOSUNNY   83  63  50 SE3       30.06F
FRANKFORT      PTSUNNY   86  69  56 SE3       30.04F HX  90
$$

KYZ054-064>069-076>088-106>120-282100-
SOUTHEAST KENTUCKY

CITY           SKY/WX    TMP DP  RH WIND       PRES   REMARKS
JACKSON        MOSUNNY   83  67  58 VRB3      30.08F
LONDON         MOSUNNY   87  68  52 NE6       30.05F HX  90
SOMERSET       MOSUNNY   86  68  54 NE6       30.04S
MIDDLESBORO    PTSUNNY   88  70  54 NE7       30.03F HX  93
MONTICELLO     CLEAR     91  73  55 NE7       30.04F HX  99
$$




USA.gov is the U.S. government's official web portal to all federal, state and local government web resources and services.